Slayton, MN

7:21 AM CDT on July 22, 2017 (GMT -0500)
Slayton

Weather History for KDVP - September, 2013

Change the Weather History Date:

Monday, September 9, 2013

  Actual Average (KOTG) Record (KOTG)
Temperature  
Mean Temperature 78 °F -  
Max Temperature 89 °F 73 °F 92 °F (1983)
Min Temperature 68 °F 52 °F 38 °F (1992)
Cooling Degree Days 13    
Growing Degree Days 28 (Base 50)    
Moisture  
Dew Point 66 °F    
Average Humidity 74    
Maximum Humidity 99    
Minimum Humidity 41    
Precipitation  
Precipitation 0.00 in - - ()
Sea Level Pressure  
Sea Level Pressure 29.79 in    
Wind  
Wind Speed 10 mph (SSW)    
Max Wind Speed 16 mph    
Max Gust Speed 24 mph    
Visibility 8 miles    
Events Rain , Thunderstorm    
Averages and records for this station are not official NWS values.
T = Trace of Precipitation, MM = Missing Value Source: NWS Daily Summary

Daily Weather History Graph

Daily Weather History Graph

Search for Another Location

Airport or City:

Trip Planner

Search our weather history database for the weather conditions in past years. The results will help you decide how hot, cold, wet, or windy it might be!

Date:

Astronomy

Sep. 09, 2013 Rise Set
Actual Time 6:55 AM CDT 7:44 PM CDT
Civil Twilight 6:26 AM CDT 8:13 PM CDT
Nautical Twilight 5:51 AM CDT 8:47 PM CDT
Astronomical Twilight 5:15 AM CDT 9:23 PM CDT
Moon 11:29 AM CDT (9/9) 9:50 PM CDT (9/9)
Length of Visible Light 13h 46m
Length of Day
12h 48m
Waxing Crescent, 19% of the Moon is Illuminated
Sep 9
Waxing Crescent
Sep 12
First Quarter
Sep 19
Full
Sep 26
Last Quarter
Oct 4
New

Hourly Weather History & Observations

Time (CDT) Temp. Heat Index Dew Point Humidity Pressure Visibility Wind Dir Wind Speed Gust Speed Precip Events Conditions
12:13 AM 69.1 °F - 67.3 °F 94% 29.88 in 5.0 mi ESE 6.9 mph - N/A   Overcast
12:33 AM 69.3 °F - 67.5 °F 94% 29.88 in 5.0 mi ESE 6.9 mph - N/A   Overcast
12:53 AM 69.3 °F - 67.5 °F 94% 29.88 in 5.0 mi ESE 8.1 mph - N/A   Overcast
1:13 AM 69.3 °F - 67.6 °F 95% 29.87 in 5.0 mi ESE 8.1 mph - N/A   Overcast
1:33 AM 69.3 °F - 67.6 °F 95% 29.86 in 5.0 mi ESE 9.2 mph - N/A   Overcast
1:53 AM 69.1 °F - 67.5 °F 95% 29.85 in 5.0 mi SE 10.4 mph - N/A   Overcast
2:13 AM 68.9 °F - 67.3 °F 95% 29.84 in 7.0 mi SE 10.4 mph - N/A   Overcast
2:33 AM 68.9 °F - 67.3 °F 95% 29.84 in 7.0 mi SE 8.1 mph - N/A   Overcast
2:53 AM 68.9 °F - 67.3 °F 95% 29.83 in 5.0 mi SE 9.2 mph - N/A   Overcast
3:13 AM 68.5 °F - 67.3 °F 96% 29.82 in 5.0 mi SE 10.4 mph - N/A Thunderstorm Overcast
3:34 AM 68.2 °F - 67.1 °F 96% 29.83 in 4.0 mi South 5.8 mph - N/A Thunderstorm Overcast
3:54 AM 68.2 °F - 67.3 °F 97% 29.81 in 4.0 mi SE 8.1 mph - N/A Thunderstorm Overcast
4:13 AM 68.0 °F - 67.3 °F 98% 29.79 in 4.0 mi SE 9.2 mph - N/A   Overcast
4:33 AM 68.0 °F - 67.5 °F 98% 29.79 in 3.0 mi SSE 11.5 mph 16.1 mph N/A   Overcast
4:53 AM 68.0 °F - 67.6 °F 99% 29.78 in 2.5 mi SSE 12.7 mph 19.6 mph N/A Thunderstorm Overcast
5:13 AM 68.2 °F - 68.0 °F 99% 29.78 in 2.5 mi SE 11.5 mph 16.1 mph N/A   Overcast
5:33 AM 68.0 °F - 67.6 °F 99% 29.79 in 1.8 mi SE 8.1 mph - N/A   Overcast
5:53 AM 68.2 °F - 68.0 °F 99% 29.79 in 2.5 mi SSE 9.2 mph - N/A   Overcast
6:12 AM 68.4 °F - 68.0 °F 99% 29.79 in 2.0 mi SSE 6.9 mph - N/A   Overcast
6:33 AM 68.4 °F - 68.0 °F 99% 29.79 in 2.0 mi SE 6.9 mph - N/A Thunderstorm Overcast
6:53 AM 68.2 °F - 68.0 °F 99% 29.78 in 2.0 mi SSE 5.8 mph - N/A   Overcast
7:13 AM 68.2 °F - 68.0 °F 99% 29.77 in 1.8 mi SSE 8.1 mph - N/A   Overcast
7:34 AM 68.2 °F - 68.0 °F 99% 29.77 in 2.0 mi SSE 9.2 mph - N/A   Overcast
7:53 AM 68.2 °F - 68.0 °F 99% 29.77 in 1.5 mi SSE 6.9 mph - N/A   Mostly Cloudy
8:13 AM 68.2 °F - 68.0 °F 99% 29.76 in 1.8 mi SSE 8.1 mph - N/A   Scattered Clouds
8:33 AM 68.4 °F - 68.0 °F 99% 29.76 in 2.5 mi SSE 6.9 mph - N/A   Clear
8:53 AM 69.1 °F - 68.0 °F 96% 29.75 in 3.0 mi SSE 5.8 mph - N/A   Clear
9:12 AM 71.8 °F - 68.5 °F 89% 29.75 in 5.0 mi SSE 9.2 mph - N/A   Clear
9:33 AM 75.0 °F - 68.0 °F 79% 29.74 in 10.0 mi South 11.5 mph 16.1 mph N/A   Clear
9:53 AM 76.1 °F - 66.9 °F 73% 29.74 in 10.0 mi South 9.2 mph - N/A   Clear
10:13 AM 76.1 °F - 66.7 °F 73% 29.74 in 10.0 mi South 11.5 mph - N/A   Clear
10:33 AM 77.5 °F - 66.7 °F 69% 29.74 in 10.0 mi SSW 12.7 mph - N/A   Clear
10:52 AM 79.9 °F - 65.8 °F 62% 29.74 in 10.0 mi SSW 13.8 mph 18.4 mph N/A   Clear
11:13 AM 81.9 °F 83.4 °F 64.4 °F 55% 29.74 in 10.0 mi SSW 16.1 mph 21.9 mph N/A   Clear
11:33 AM 82.4 °F 83.7 °F 63.7 °F 53% 29.74 in 10.0 mi SSW 13.8 mph - N/A   Clear
11:53 AM 83.8 °F 84.9 °F 63.1 °F 50% 29.74 in 10.0 mi SW 16.1 mph - N/A   Clear
12:13 PM 84.2 °F 85.2 °F 63.1 °F 49% 29.73 in 10.0 mi SSW 13.8 mph - N/A   Clear
12:32 PM 83.8 °F 84.9 °F 63.5 °F 50% 29.72 in 10.0 mi SSW 13.8 mph - N/A   Clear
12:53 PM 84.6 °F 85.9 °F 64.0 °F 50% 29.73 in 10.0 mi SSW 15.0 mph 19.6 mph N/A   Clear
1:13 PM 85.3 °F 86.6 °F 63.9 °F 49% 29.73 in 10.0 mi SSW 16.1 mph - N/A   Clear
1:33 PM 86.0 °F 87.3 °F 64.0 °F 48% 29.72 in 10.0 mi SSW 16.1 mph - N/A   Clear
1:53 PM 86.4 °F 87.8 °F 64.4 °F 48% 29.74 in 10.0 mi SW 15.0 mph 21.9 mph N/A   Clear
2:14 PM 86.7 °F 87.8 °F 63.9 °F 46% 29.74 in 10.0 mi SW 16.1 mph 23.0 mph N/A   Clear
2:33 PM 87.3 °F 88.6 °F 63.9 °F 46% 29.74 in 10.0 mi SW 16.1 mph 19.6 mph N/A   Clear
2:53 PM 87.8 °F 88.5 °F 63.0 °F 43% 29.73 in 10.0 mi SSW 16.1 mph 20.7 mph N/A   Clear
3:13 PM 88.0 °F 88.7 °F 63.0 °F 43% 29.73 in 10.0 mi WSW 15.0 mph 24.2 mph N/A   Clear
3:33 PM 88.3 °F 89.2 °F 63.0 °F 43% 29.73 in 10.0 mi SW 15.0 mph 21.9 mph N/A   Clear
3:53 PM 88.9 °F 89.7 °F 63.1 °F 42% 29.73 in 10.0 mi SW 13.8 mph 24.2 mph N/A   Clear
4:15 PM 88.9 °F 89.7 °F 63.0 °F 42% 29.74 in 10.0 mi SW 15.0 mph 20.7 mph N/A   Clear
4:33 PM 88.9 °F 89.4 °F 62.2 °F 41% 29.74 in 10.0 mi SW 15.0 mph - N/A   Clear
4:54 PM 88.7 °F 89.1 °F 62.1 °F 41% 29.74 in 10.0 mi SW 13.8 mph - N/A   Clear
5:13 PM 88.7 °F 89.1 °F 62.4 °F 41% 29.75 in 10.0 mi SW 12.7 mph 18.4 mph N/A   Clear
5:33 PM 88.2 °F 88.7 °F 62.4 °F 42% 29.75 in 10.0 mi SW 12.7 mph - N/A   Clear
5:53 PM 87.8 °F 89.1 °F 64.0 °F 45% 29.76 in 10.0 mi SW 10.4 mph 17.3 mph N/A   Clear
6:13 PM 86.9 °F 88.9 °F 65.5 °F 49% 29.76 in 10.0 mi SW 9.2 mph - N/A   Clear
6:32 PM 86.0 °F 88.2 °F 66.2 °F 51% 29.77 in 10.0 mi SW 8.1 mph - N/A   Clear
6:53 PM 84.6 °F 87.4 °F 67.3 °F 56% 29.77 in 10.0 mi SW 5.8 mph - N/A   Clear
7:13 PM 83.3 °F 85.7 °F 66.7 °F 57% 29.78 in 10.0 mi NW 11.5 mph 16.1 mph N/A   Scattered Clouds
7:33 PM 80.8 °F 83.1 °F 66.6 °F 62% 29.79 in 10.0 mi WNW 9.2 mph - N/A   Scattered Clouds
7:53 PM 78.8 °F - 66.6 °F 66% 29.80 in 10.0 mi WNW 8.1 mph - N/A   Clear
8:12 PM 77.0 °F - 67.3 °F 72% 29.81 in 10.0 mi WNW 6.9 mph - N/A   Clear
8:33 PM 75.2 °F - 67.6 °F 77% 29.82 in 10.0 mi WNW 6.9 mph - N/A   Clear
8:53 PM 74.1 °F - 67.5 °F 80% 29.83 in 10.0 mi NW 5.8 mph - N/A   Clear
9:13 PM 72.5 °F - 67.1 °F 83% 29.84 in 10.0 mi NW 5.8 mph - N/A   Clear
9:33 PM 72.7 °F - 66.7 °F 82% 29.85 in 10.0 mi NW 5.8 mph - N/A   Mostly Cloudy
9:53 PM 72.1 °F - 66.4 °F 82% 29.85 in 10.0 mi NW 6.9 mph - N/A   Scattered Clouds
10:13 PM 72.1 °F - 66.2 °F 82% 29.85 in 10.0 mi NW 5.8 mph - N/A   Scattered Clouds
10:33 PM 72.7 °F - 65.5 °F 78% 29.85 in 10.0 mi NW 5.8 mph - N/A   Mostly Cloudy
10:52 PM 72.9 °F - 65.3 °F 77% 29.86 in 10.0 mi NW 6.9 mph - N/A   Overcast
11:13 PM 72.1 °F - 65.3 °F 79% 29.87 in 10.0 mi NW 8.1 mph - N/A Thunderstorm Mostly Cloudy
11:33 PM 70.3 °F - 66.4 °F 87% 29.88 in 7.0 mi NW 11.5 mph - N/A Rain , Thunderstorm Light Thunderstorms and Rain
11:53 PM 69.8 °F - 66.4 °F 89% 29.92 in 10.0 mi WNW 11.5 mph - N/A   Mostly Cloudy